{"data":{"norad_id":69271,"intl_designator":"2026-118E","name":"KUIPER-00570","alt_names":[],"object_type":"PAYLOAD","status":"ACTIVE","operator":null,"country":"US","launch_date":"2026-05-29","launch_site_code":"AFETR","launch_vehicle":null,"mission":null,"orbit_class":"UNKNOWN","rcs_meters":null,"size_class":null,"mass_kg":null,"dimensions":null,"purposes":[],"wikipedia_slug":null,"has_3d_model":false,"image_url":null,"decayed_at":null,"tle_current":{"epoch":"2026-09-19T11:48:33.119136Z","epoch_age_seconds":117157,"freshness":"FRESH","line1":"1 69271U 26118E   26262.49204999  .00000499  00000+0  94396-4 0  9993","line2":"2 69271  51.9001 346.2473 0000272  62.0310 298.0680 14.79931622 18078","mean_motion":14.79931622,"eccentricity":2.72e-5,"inclination_deg":51.9001,"raan_deg":346.2473,"arg_perigee_deg":62.031,"mean_anomaly_deg":298.068,"bstar":9.4396e-5,"rev_number":1807,"period_min":97.301792771612,"perigee_km":629.34937036907,"apogee_km":629.73058799673,"semimajor_km":7007.6769791829,"source":"CELESTRAK","updated_at":"2026-09-20T09:00:24.776614Z"}}}